#timestamp,LO_Frequency,Hit 
1498762815.6,286047008.7,N
1498762835.4,286047008.0,N
1498762855.2,286047008.4,N
1498762875.0,286047007.2,N
1498762876.0,286047007.2,N
1498762895.8,286047002.9,N
1498762915.6,286047004.3,N
1498762935.4,286047001.4,N
1498762955.3,286047001.5,N
1498762975.1,286047004.0,N
1498762995.8,286047002.6,N
1498763015.7,286047002.7,N
1498763035.5,286047001.9,N
1498763055.3,286046999.7,N
1498763075.2,286047004.0,N
1498763095.9,286047003.4,N
1498763115.7,286047003.4,N
1498763135.6,286047003.9,N
1498763155.4,286047001.3,N
1498763175.2,286047002.9,N
1498763195.0,286047005.5,N
1498763196.0,286047005.5,N
1498763215.8,286047005.9,N
1498763235.6,286047005.3,N
1498763255.4,286047004.7,N
1498763275.3,286047005.3,N
1498763295.1,286047003.4,N
1498763315.8,286047005.1,N
1498763335.7,286047004.8,N
1498763355.5,286047005.5,N
1498763375.3,286047003.0,N
1498763395.2,286047006.0,N
1498763415.9,286047005.8,N
1498763435.7,286047005.2,N
1498763455.6,286047005.4,N
1498763475.4,286047005.2,N
1498763495.2,286047005.2,N
1498763515.0,286047007.0,N
1498763516.0,286047007.0,N
1498763535.8,286047006.5,N
1498763555.6,286047006.3,N
1498763575.4,286047007.5,N
1498763595.3,286047005.3,N
1498763615.1,286047003.3,N
1498763635.8,286047001.8,N
1498763655.7,286047001.8,N
1498763675.5,286047004.0,N
1498763695.3,286047003.3,N
1498763715.2,286047003.0,N
1498763735.9,286047004.2,N
1498763755.7,286047004.5,N
1498763775.6,286047005.4,N
1498763795.4,286047007.3,N
1498763815.2,286047006.4,N
1498763835.0,286047006.5,N
1498763836.0,286047006.5,N
1498763855.8,286047006.6,N
1498763875.6,286047009.1,N
1498763895.4,286047010.4,N
1498763915.3,286047012.1,N
1498763935.1,286047012.3,N
1498763955.8,286047011.5,N
1498763975.7,286047013.9,N
1498763995.5,286047009.7,N
1498764015.3,286047011.6,N
1498764035.2,286047009.8,N
1498764055.9,286047012.1,N
1498764075.7,286047012.4,N
1498764095.6,286047010.5,N
1498764115.4,286047010.0,N
1498764135.2,286047008.2,N
1498764155.0,286047009.8,N
1498764156.0,286047009.8,N
1498764175.8,286047009.5,N
1498764195.6,286047009.7,N
1498764215.4,286047009.6,N
1498764235.3,286047012.3,N
1498764255.1,286047011.1,N
1498764275.8,286047009.7,N
1498764295.7,286047011.6,N
1498764315.5,286047012.3,N
1498764335.3,286047013.6,N
1498764355.2,286047012.8,N
1498764375.9,286047015.0,N
1498764395.7,286047013.2,N
1498764415.6,286047013.0,N
1498764435.4,286047011.0,N
1498764455.2,286047013.3,N
1498764475.1,286047012.2,N
1498764476.0,286047012.2,N
1498764495.8,286047014.0,N
1498764515.6,286047015.0,N
1498764535.4,286047015.1,N
1498764555.3,286047014.1,N
1498764575.1,286047016.7,N
1498764595.8,286047014.5,N
1498764615.7,286047014.7,N
1498764635.5,286047016.7,N
1498764655.3,286047015.7,N
1498764675.2,286047016.5,N
1498764695.9,286047014.6,N
1498764715.7,286047015.6,N
1498764735.6,286047012.5,N
1498764755.4,286047015.6,N
1498764775.2,286047012.8,N
1498764795.1,286047012.8,N
1498764796.0,286047012.8,N
1498764815.8,286047015.0,N
1498764835.6,286047015.1,N
1498764855.4,286047014.3,N
1498764875.3,286047016.7,N
1498764895.1,286047016.6,N
1498764915.8,286047018.4,N
1498764935.7,286047018.0,N
1498764955.5,286047017.3,N
1498764975.3,286047018.7,N
1498764995.2,286047016.4,N
1498765015.9,286047016.6,N
1498765035.7,286047018.4,N
1498765055.6,286047017.9,N
1498765075.4,286047018.0,N
1498765095.5,286047018.5,N
1498765115.4,286047018.1,N
1498765135.2,286047017.8,N
1498765155.0,286047020.0,N
1498765155.9,286047020.0,N
1498765175.8,286047019.9,N
1498765195.6,286047020.0,N
1498765215.4,286047022.0,N
1498765235.2,286047023.5,N
1498765255.1,286047023.5,N
1498765256.0,286047023.5,N
1498765275.8,286047022.2,N
1498765295.6,286047022.1,N
1498765315.5,286047024.9,N
1498765335.3,286047026.3,N
1498765355.1,286047026.1,N
1498765375.9,286047026.8,N
1498765395.7,286047026.7,N
1498765415.5,286047026.5,N
1498765435.4,286047025.7,N
1498765455.2,286047027.0,N
1498765475.0,286047028.0,N
1498765475.9,286047028.0,N
1498765495.8,286047027.8,N
1498765515.6,286047027.2,N
1498765535.4,286047028.3,N
1498765555.2,286047023.8,N
1498765575.1,286047024.1,N
1498765576.0,286047024.1,N
1498765595.8,286047026.3,N
1498765615.6,286047027.3,N
1498765635.5,286047027.4,N
1498765655.3,286047025.7,N
1498765675.1,286047026.9,N
1498765695.9,286047030.0,N
1498765715.7,286047028.4,N
1498765735.5,286047027.3,N
1498765755.4,286047027.8,N
1498765775.2,286047025.7,N
1498765795.0,286047025.7,N
1498765795.9,286047025.7,N
1498765815.8,286047026.1,N
1498765835.6,286047025.3,N
1498765855.4,286047028.3,N
1498765875.2,286047026.4,N
1498765895.1,286047026.9,N
1498765896.0,286047026.9,N
1498765915.8,286047027.5,N
1498765935.6,286047027.5,N
1498765955.5,286047027.9,N
1498765975.3,286047028.3,N
1498765995.1,286047027.9,N
1498766015.9,286047027.4,N
1498766035.7,286047030.0,N
1498766055.5,286047027.3,N
1498766075.4,286047029.1,N
1498766095.2,286047028.8,N
1498766115.0,286047029.1,N
1498766115.9,286047029.1,N
1498766135.8,286047029.3,N
1498766155.6,286047029.1,N
1498766175.4,286047027.5,N
1498766195.3,286047030.6,N
1498766215.1,286047031.9,N
1498766216.0,286047031.9,N
1498766235.8,286047031.9,N
1498766255.7,286047033.1,N
1498766275.5,286047031.1,N
1498766295.3,286047031.8,N
1498766315.1,286047033.0,N
1498766335.9,286047032.0,N
1498766355.7,286047034.5,N
1498766375.5,286047034.3,N
1498766395.4,286047033.1,N
